Weather History for KOVS - January, 2014

Change the Weather History Date:

Sunday, January 12, 2014

  Actual Average (KPDC) Record (KPDC)
Temperature  
Mean Temperature 36 °F -  
Max Temperature 44 °F 25 °F 50 °F (1987)
Min Temperature 27 °F 6 °F -26 °F (1977)
Degree Days  
Heating Degree Days 30    
Moisture  
Dew Point 27 °F    
Average Humidity 73    
Maximum Humidity 85    
Minimum Humidity 51    
Precipitation  
Precipitation 0.00 in - - ()
Sea Level Pressure  
Sea Level Pressure 29.62 in    
Wind  
Wind Speed 7 mph (SSW)    
Max Wind Speed 15 mph    
Max Gust Speed 22 mph    
Visibility 10 miles    
Events      
Averages and records for this station are not official NWS values.
T = Trace of Precipitation, MM = Missing Value Source: NWS Daily Summary

Daily Weather History Graph

Daily Weather History Graph

Search for Another Location

Airport or City:

Trip Planner

Search our weather history database for the weather conditions in past years. The results will help you decide how hot, cold, wet, or windy it might be!

Date:

Astronomy

Jan. 12, 2014 Rise Set
Actual Time 7:32 AM CST 4:49 PM CST
Civil Twilight 7:01 AM CST 5:21 PM CST
Nautical Twilight 6:25 AM CST 5:56 PM CST
Astronomical Twilight 5:51 AM CST 6:30 PM CST
Moon 2:18 PM CST (1/12) 4:31 AM CST (1/12)
Length of Visible Light 10h 20m
Length of Day
9h 16m
Waxing Gibbous, 90% of the Moon is Illuminated
Jan 12
Waxing Gibbous
Jan 15
Full
Jan 23
Last Quarter
Jan 30
New
Feb 6
First Quarter

Hourly Weather History & Observations

Time (CST) Temp. Windchill Dew Point Humidity Pressure Visibility Wind Dir Wind Speed Gust Speed Precip Events Conditions
12:22 AM 28.0 °F 20.0 °F 24.1 °F 85% 29.77 in 10.0 mi SW 8.1 mph - 0.00 in   Overcast
12:53 AM 28.9 °F 21.9 °F 25.0 °F 85% 29.79 in 10.0 mi SW 6.9 mph - 0.00 in   Overcast
1:53 AM 28.9 °F 22.8 °F 25.0 °F 85% 29.79 in 9.0 mi SSW 5.8 mph - N/A   Overcast
2:53 AM 28.0 °F 20.8 °F 24.1 °F 85% 29.80 in 10.0 mi SSW 6.9 mph - 0.00 in   Overcast
3:53 AM 28.0 °F 20.8 °F 24.1 °F 85% 29.77 in 7.0 mi SSW 6.9 mph - N/A   Mostly Cloudy
4:53 AM 27.0 °F 20.5 °F 23.0 °F 85% 29.53 in 10.0 mi SSW 5.8 mph - N/A   Overcast
5:53 AM 28.0 °F 24.2 °F 24.1 °F 85% 29.71 in 10.0 mi South 3.5 mph - N/A   Overcast
6:22 AM 28.0 °F 24.2 °F 24.1 °F 85% 29.68 in 8.0 mi South 3.5 mph - N/A   Mostly Cloudy
6:53 AM 28.9 °F 21.9 °F 25.0 °F 85% 29.70 in 8.0 mi SSW 6.9 mph - N/A   Partly Cloudy
7:53 AM 30.9 °F 22.8 °F 25.0 °F 79% 29.68 in 10.0 mi South 9.2 mph - N/A   Clear
8:53 AM 34.0 °F 24.2 °F 25.0 °F 70% 29.64 in 10.0 mi South 15.0 mph 20.7 mph N/A   Clear
9:53 AM 36.0 °F 30.3 °F 25.0 °F 64% 29.61 in 10.0 mi South 6.9 mph 17.3 mph N/A   Clear
10:53 AM 41.0 °F 34.7 °F 26.1 °F 55% 29.60 in 10.0 mi SSW 10.4 mph - 0.00 in   Clear
11:53 AM 44.1 °F 39.0 °F 27.0 °F 51% 29.54 in 10.0 mi SSW 9.2 mph - N/A   Clear
12:53 PM 44.1 °F 37.4 °F 27.0 °F 51% 29.53 in 10.0 mi SW 13.8 mph 21.9 mph 0.00 in   Clear
1:53 PM 43.0 °F 37.7 °F 28.0 °F 56% 29.53 in 10.0 mi SSW 9.2 mph - 0.00 in   Clear
2:53 PM 43.0 °F 38.8 °F 28.0 °F 56% 29.52 in 10.0 mi Variable 6.9 mph - N/A   Clear
3:53 PM 42.1 °F 37.7 °F 28.9 °F 60% 29.53 in 10.0 mi SSW 6.9 mph - N/A   Clear
4:53 PM 41.0 °F 38.0 °F 28.9 °F 62% 29.54 in 10.0 mi SSW 4.6 mph - N/A   Clear
5:53 PM 39.0 °F - 30.0 °F 70% 29.57 in 10.0 mi Calm Calm - N/A   Clear
6:53 PM 39.0 °F - 28.9 °F 67% 29.57 in 10.0 mi Calm Calm - N/A   Clear
7:53 PM 39.0 °F 36.8 °F 30.0 °F 70% 29.56 in 10.0 mi Variable 3.5 mph - N/A   Clear
8:53 PM 37.0 °F 34.5 °F 30.0 °F 76% 29.56 in 10.0 mi SW 3.5 mph - N/A   Mostly Cloudy
9:53 PM 37.9 °F 34.4 °F 30.0 °F 73% 29.57 in 10.0 mi SSW 4.6 mph - N/A   Overcast
10:53 PM 36.0 °F - 30.0 °F 79% 29.56 in 10.0 mi Calm Calm - N/A   Overcast
11:53 PM 35.1 °F 32.2 °F 30.9 °F 85% 29.55 in 10.0 mi WNW 3.5 mph - N/A   Mostly Cloudy